Regional Weather Roundup
Issued by NWS Goodland, KS

Home | Current Version | Previous Version | Graphics & Text | Print | Product List | Glossary On
Versions: 1 2 3 4 5 6 7 8 9 10 11 12 13 14 15 16 17 18 19 20 21 22 23 24 25 26 27 28 29 30 31 32 33 34 35 36 37 38 39 40 41 42 43 44 45 46 47 48 49 50
000
ASUS43 KGLD 070159
RWRGLD

GOODLAND FORECAST AREA HOURLY WEATHER ROUNDUP
NATIONAL WEATHER SERVICE GOODLAND KS
800 PM MDT WED MAY 06 2015

...OFFICIAL OBSERVATIONS...

CITY           SKY/WX    TMP DP  RH WIND       PRES   REMARKS
GOODLAND KS    PTCLDY    63  54  72 SW9       29.66R
HILL CITY KS   MOCLDY    62  56  80 CALM      29.58S
IMPERIAL NEB   PTCLDY    60  55  83 NW7       29.61R
MCCOOK NEB     CLOUDY    66  55  67 SW7       29.59R
AKRON CO       CLOUDY    56  53  90 N6        29.70R
BURLINGTON CO  MOCLDY    62  52  69 SW12      29.70R
LIMON CO       CLOUDY    53  47  79 CALM      29.72F
$$

...UNOFFICIAL OBSERVATIONS...

CITY           SKY/WX    TMP DP  RH WIND       PRES   REMARKS
COLBY KS       CLEAR     63  57  82 SW9       29.65R
GOVE KS          N/A     70  32  24 MISG        N/A
LENORA KS        N/A     66  32  28 MISG        N/A
NORTON KS      CLEAR     63  50  63 SW3       29.58S
SHARON SPRINGS   N/A     65  58  77 MISG        N/A
TRENTON NEB      N/A     63  32  31 SW6         N/A
KIT CARSON CO    N/A     53  50  91 MISG        N/A
YUMA CO          N/A     58  53  84 W6          N/A
$$



USA.gov is the U.S. government's official web portal to all federal, state and local government web resources and services.